Weather History for Bucuresti / Imh, Romania

Change the Weather History Date:

Thursday, February 11, 2010

  Actual Average Record
Temperature  
Mean Temperature 30 °F -  
Max Temperature 36 °F 43 °F - ()
Min Temperature 25 °F 29 °F - ()
Degree Days  
Heating Degree Days 34    
Moisture  
Dew Point 34 °F    
Average Humidity 98    
Maximum Humidity 100    
Minimum Humidity 93    
Precipitation  
Precipitation 0.35 in 0.05 in - ()
Sea Level Pressure  
Sea Level Pressure 29.57 in    
Wind  
Wind Speed 15 mph ()    
Max Wind Speed 22 mph    
Max Gust Speed -    
Visibility 1.9 miles    
Events Fog , Rain , Snow    
T = Trace of Precipitation, MM = Missing Value Source: Averaged Metar Reports

Daily Weather History Graph

Daily Weather History Graph

Search for Another Location

Airport:

Trip Planner

Search our weather history database for the weather conditions in past years. The results will help you decide how hot, cold, wet, or windy it might be!

Date:

Astronomy

Feb. 11, 2010 Rise Set
Actual Time 7:21 AM EET 5:38 PM EET
Civil Twilight 6:51 AM EET 6:08 PM EET
Nautical Twilight 6:17 AM EET 6:43 PM EET
Astronomical Twilight 5:43 AM EET 7:16 PM EET
Moon 5:53 AM EET (2/11) 3:08 PM EET (2/11)
Length of Visible Light 11h 16m
Length of Day
10h 16m
Waning Crescent, 6% of the Moon is Illuminated
Feb 11
Waning Crescent
Feb 14
New
Feb 22
First Quarter
Feb 28
Full
Mar 7
Last Quarter

Hourly Weather History & Observations

Time (EET) Temp. Windchill Dew Point Humidity Pressure Visibility Wind Dir Wind Speed Gust Speed Precip Events Conditions
12:00 AM 28 °F - 27 °F 93% 29.73 in 2 mi NE 17.9 mph - - Snow Light Snow
12:00 AM 30.2 °F 17.1 °F 28.4 °F 93% 29.71 in 0.5 mi East 21.9 mph - N/A Snow Snow
12:30 AM 28.4 °F 15.1 °F 28.4 °F 100% 29.68 in 0.2 mi ENE 20.7 mph - N/A Snow Heavy Blowing Snow
1:00 AM 28 °F - 28 °F 99% 29.70 in 0 mi ENE 15.7 mph - - Snow Snow
1:00 AM 28.4 °F 14.7 °F 28.4 °F 100% 29.65 in 0.4 mi ENE 21.9 mph - N/A Snow Heavy Blowing Snow
1:30 AM 30.2 °F 17.4 °F 28.4 °F 93% 29.65 in 0.6 mi East 20.7 mph - N/A Snow Heavy Snow
2:00 AM 30 °F - 29 °F 96% 29.68 in 0 mi ENE 17.9 mph - - Snow Snow
2:00 AM 30.2 °F 17.1 °F 30.2 °F 100% 29.65 in 0.7 mi ENE 21.9 mph - N/A Snow Light Snow
2:30 AM 32.0 °F 20.1 °F 30.2 °F 93% 29.62 in 0.9 mi East 19.6 mph - N/A Rain , Snow Light Snow
3:00 AM 31 °F - 31 °F 100% 29.66 in 2 mi ENE 15.7 mph - - Rain Light Freezing Rain
3:00 AM 32.0 °F 19.8 °F 32.0 °F 100% 29.62 in 0.9 mi East 20.7 mph - N/A Rain , Snow Light Rain
3:30 AM 33.8 °F 22.8 °F 32.0 °F 93% 29.59 in 0.9 mi East 18.4 mph - N/A Rain , Snow Light Rain
4:00 AM 32 °F - 32 °F 100% 29.62 in 2 mi ENE 15.7 mph - - Rain Light Rain
4:00 AM 33.8 °F 23.5 °F 33.8 °F 100% 29.59 in 0.9 mi East 16.1 mph - N/A Rain , Snow Light Rain
4:30 AM 33.8 °F 23.5 °F 33.8 °F 100% 29.56 in 0.9 mi East 16.1 mph - N/A Rain Light Rain
5:00 AM 33 °F - 33 °F 99% 29.60 in 2 mi NE 13.4 mph - - Rain Light Rain
5:00 AM 33.8 °F 22.2 °F 33.8 °F 100% 29.56 in 0.9 mi ENE 20.7 mph - N/A Rain Light Rain
5:30 AM 33.8 °F 22.2 °F 33.8 °F 100% 29.53 in 0.9 mi ENE 20.7 mph - N/A Rain Light Rain
6:00 AM 34 °F - 34 °F 100% 29.57 in 2 mi NE 13.4 mph - - Rain Light Rain
6:00 AM 33.8 °F 22.2 °F 33.8 °F 100% 29.53 in 0.9 mi East 20.7 mph - N/A Rain Light Rain
6:30 AM 33.8 °F 22.2 °F 33.8 °F 100% 29.53 in 0.9 mi East 20.7 mph - N/A Rain Light Rain
7:00 AM 34 °F - 34 °F 100% 29.55 in 2 mi ENE 13.4 mph - - Rain Light Rain
7:00 AM 33.8 °F 23.2 °F 33.8 °F 100% 29.53 in 0.9 mi East 17.3 mph - N/A Rain Light Rain
8:00 AM 35 °F - 35 °F 98% 29.53 in 2 mi ENE 17.9 mph - - Rain Light Rain
8:00 AM 35.6 °F 25.9 °F 33.8 °F 93% 29.50 in 1.6 mi East 16.1 mph - N/A Rain Light Rain
8:30 AM 35.6 °F 25.9 °F 33.8 °F 93% 29.50 in 1.6 mi ENE 16.1 mph - N/A Rain Light Rain
9:00 AM 35 °F - 35 °F 100% 29.52 in - ENE 13.4 mph - -  
9:00 AM 35.6 °F 25.9 °F 35.6 °F 100% 29.50 in 1.6 mi ENE 16.1 mph - N/A Rain Light Rain
9:30 AM 35.6 °F 25.9 °F 33.8 °F 93% 29.50 in 1.2 mi East 16.1 mph - N/A Rain Light Rain
10:00 AM 35 °F - 35 °F 100% 29.54 in - ENE 13.4 mph - -  
10:00 AM 35.6 °F 25.9 °F 35.6 °F 100% 29.53 in 1.2 mi East 16.1 mph - N/A Rain Light Rain
10:30 AM 35.6 °F 25.9 °F 35.6 °F 100% 29.53 in 0.4 mi East 16.1 mph - N/A Fog , Rain Light Rain
11:00 AM 35 °F - 35 °F 100% 29.54 in - ENE 11.2 mph - -  
11:00 AM 35.6 °F 25.9 °F 35.6 °F 100% 29.53 in 0.2 mi East 16.1 mph - N/A Fog , Rain Light Rain
11:30 AM 35.6 °F 25.9 °F 35.6 °F 100% 29.53 in 0.2 mi East 16.1 mph - N/A Fog , Rain Light Rain
12:00 PM 35 °F - 35 °F 100% 29.55 in - ENE 13.4 mph - -  
12:00 PM 35.6 °F 26.2 °F 35.6 °F 100% 29.53 in 0.2 mi ENE 15.0 mph - N/A Fog Light Drizzle
12:30 PM 35.6 °F 26.2 °F 35.6 °F 100% 29.53 in 0.2 mi ENE 15.0 mph - N/A Fog Light Drizzle
1:00 PM 36 °F - 36 °F 100% 29.54 in 0 mi ENE 11.2 mph - - Fog Heavy Fog
1:00 PM 35.6 °F 26.6 °F 35.6 °F 100% 29.53 in 0.2 mi East 13.8 mph - N/A Fog Light Drizzle
1:30 PM 35.6 °F 26.2 °F 35.6 °F 100% 29.50 in 0.2 mi East 15.0 mph - N/A Fog Light Drizzle
2:00 PM 36 °F - 36 °F 100% 29.53 in 0 mi NE 8.9 mph - - Fog Heavy Fog
2:00 PM 35.6 °F 26.2 °F 35.6 °F 100% 29.50 in 0.3 mi ENE 15.0 mph - N/A Fog , Rain Light Rain
2:30 PM 35.6 °F 26.2 °F 35.6 °F 100% 29.50 in 0.6 mi ENE 15.0 mph - N/A Rain Light Rain
3:00 PM 36 °F - 36 °F 100% 29.52 in 1 mi NE 11.2 mph - - Rain Light Rain
3:00 PM 35.6 °F 26.2 °F 35.6 °F 100% 29.50 in - East 15.0 mph - N/A   Mostly Cloudy
3:30 PM 35.6 °F 27.1 °F 35.6 °F 100% 29.50 in 1.9 mi East 12.7 mph - N/A Rain Light Rain
4:00 PM 36 °F - 36 °F 98% 29.54 in 1 mi NE 11.2 mph - - Rain Light Rain
4:00 PM 35.6 °F 27.1 °F 35.6 °F 100% 29.53 in 3.1 mi East 12.7 mph - N/A Rain Light Rain
4:30 PM 35.6 °F 26.6 °F 35.6 °F 100% 29.53 in 2.5 mi ENE 13.8 mph - N/A   Overcast
5:00 PM 36 °F - 36 °F 98% 29.54 in 1 mi NE 8.9 mph - - Rain Light Rain
5:00 PM 35.6 °F 27.1 °F 35.6 °F 100% 29.53 in 2.5 mi ENE 12.7 mph - N/A   Overcast
5:30 PM 35.6 °F 26.6 °F 35.6 °F 100% 29.53 in 2.5 mi East 13.8 mph - N/A Rain Light Rain
6:00 PM 35 °F - 35 °F 100% 29.55 in 2 mi NE 8.9 mph - - Rain Light Rain
6:00 PM 35.6 °F 26.2 °F 35.6 °F 100% 29.53 in 2.5 mi East 15.0 mph - N/A Rain Light Rain
6:30 PM 35.6 °F 25.9 °F 35.6 °F 100% 29.56 in 3.1 mi East 16.1 mph - N/A Rain Light Rain
7:00 PM 35 °F - 35 °F 100% 29.57 in 6 mi NE 11.2 mph - - Rain Rain
7:00 PM 35.6 °F 26.2 °F 35.6 °F 100% 29.56 in 5.0 mi East 15.0 mph - N/A Rain Light Rain
7:30 PM 35.6 °F 26.2 °F 35.6 °F 100% 29.56 in 6.2 mi East 15.0 mph - N/A   Overcast
8:00 PM 35 °F - 35 °F 100% 29.57 in 6 mi ENE 11.2 mph - - Rain Light Rain
8:00 PM 35.6 °F 26.6 °F 33.8 °F 93% 29.56 in 6.2 mi East 13.8 mph - N/A   Overcast
8:30 PM 35.6 °F 27.1 °F 33.8 °F 93% 29.56 in 6.2 mi East 12.7 mph - N/A   Overcast
9:00 PM 35 °F - 35 °F 99% 29.59 in 6 mi NE 11.2 mph - -   Overcast
9:00 PM 35.6 °F 27.5 °F 33.8 °F 93% 29.56 in 3.7 mi ENE 11.5 mph - N/A   Overcast
9:30 PM 35.6 °F 26.6 °F 33.8 °F 93% 29.59 in 1.9 mi East 13.8 mph - N/A   Overcast
10:00 PM 35 °F - 35 °F 98% 29.60 in 6 mi ENE 11.2 mph - -   Overcast
10:00 PM 35.6 °F 27.5 °F 33.8 °F 93% 29.59 in 1.2 mi East 11.5 mph - N/A   Overcast
10:30 PM 35.6 °F 28.0 °F 33.8 °F 93% 29.59 in 1.2 mi East 10.4 mph - N/A Rain Light Rain
11:00 PM 35 °F - 35 °F 98% 29.62 in 6 mi ENE 8.9 mph - -   Overcast
11:00 PM 35.6 °F 27.1 °F 33.8 °F 93% 29.59 in 2.5 mi East 12.7 mph - N/A Rain , Snow Light Rain
11:30 PM 35.6 °F 28.6 °F 33.8 °F 93% 29.59 in 3.1 mi East 9.2 mph - N/A   Overcast